FW9581 Weather Reports


time (UTC)temp
C
wind
direction
speed
KPH
gust
KPH
rain 1hr
cm
rain 24hr
cm
rain mn
cm
humidity
%
barometer
mb
20260906083014 28 273 0.0 6.4 0.00 0.00 0.00 61 1021.0
20260906081622 28 274 0.0 4.8 0.00 0.00 0.00 64 1021.0
20260906080115 28 274 0.0 3.2 0.00 0.00 0.00 66 1020.9
20260906074627 27 274 3.2 6.4 0.00 0.00 0.00 68 1020.7
20260906073005 27 274 1.6 9.7 0.00 0.00 0.00 72 1020.6
20260906071521 27 203 1.6 4.8 0.00 0.00 0.00 73 1020.5
20260906070117 27 203 0.0 3.2 0.00 0.00 0.00 74 1020.5
20260906064630 26 203 1.6 4.8 0.00 0.00 0.00 75 1020.3
20260906063048 26 244 0.0 4.8 0.00 0.00 0.00 78 1020.4
20260906061610 25 252 1.6 4.8 0.00 0.00 0.00 80 1020.3
20260906060112 25 156 1.6 4.8 0.00 0.00 0.00 81 1020.2
20260906054621 25 156 0.0 1.6 0.00 0.00 0.00 82 1020.0
20260906053133 24 156 0.0 1.6 0.00 0.00 0.00 84 1019.9
20260906051504 23 156 0.0 1.6 0.00 0.00 0.00 86 1019.9
20260906050105 23 134 0.0 3.2 0.00 0.00 0.00 86 1019.8
20260906044623 23 225 0.0 1.6 0.00 0.00 0.00 86 1019.7
20260906043051 23 253 0.0 3.2 0.00 0.00 0.00 86 1019.6
20260906041621 23 253 0.0 3.2 0.00 0.00 0.00 85 1019.7
20260906040023 23 253 0.0 3.2 0.00 0.00 0.00 85 1019.6
20260906034620 23 253 0.0 4.8 0.00 0.00 0.00 85 1019.6
20260906033139 23 253 0.0 1.6 0.00 0.00 0.00 84 1019.5
20260906031527 23 253 0.0 0.0 0.00 0.00 0.00 84 1019.5
20260906030124 23 253 0.0 1.6 0.00 0.00 0.00 85 1019.6
20260906024508 23 253 0.0 1.6 0.00 0.00 0.00 86 1019.6
20260906023120 23 253 0.0 0.0 0.00 0.00 0.00 85 1019.6
20260906021505 23 253 0.0 3.2 0.00 0.00 0.00 86 1019.7
20260906020111 23 253 0.0 4.8 0.00 0.00 0.00 86 1019.7
20260906014502 23 253 1.6 4.8 0.00 0.00 0.00 85 1019.7
20260906013103 23 253 0.0 1.6 0.00 0.00 0.00 85 1019.7
20260906011625 23 253 0.0 1.6 0.00 0.00 0.00 84 1019.7
20260906010019 23 253 0.0 0.0 0.00 0.00 0.00 85 1019.8
20260906004621 23 253 0.0 3.2 0.00 0.00 0.00 86 1019.8
20260906003050 23 253 0.0 3.2 0.00 0.00 0.00 86 1019.8
20260906001619 23 253 0.0 0.0 0.00 0.00 0.00 85 1019.8
20260906000046 24 253 0.0 3.2 0.00 0.00 0.00 86 1019.9
20260905234617 23 253 0.0 0.0 0.00 0.00 0.00 86 1019.9
20260905233128 23 253 0.0 0.0 0.00 0.00 0.00 86 1019.9
20260905231514 23 253 0.0 0.0 0.00 0.00 0.00 85 1019.9
20260905230124 23 253 0.0 0.0 0.00 0.00 0.00 84 1019.9
20260905224506 24 253 0.0 0.0 0.00 0.00 0.00 85 1020.0
20260905223118 24 253 0.0 0.0 0.00 0.00 0.00 85 1020.0
20260905221508 24 253 0.0 0.0 0.00 0.00 0.00 84 1020.0
20260905220111 24 253 0.0 1.6 0.00 0.00 0.00 83 1019.9
20260905214621 24 253 0.0 0.0 0.00 0.00 0.00 82 1019.9
20260905213050 24 253 0.0 0.0 0.00 0.00 0.00 81 1019.9
20260905211631 24 253 0.0 0.0 0.00 0.00 0.00 81 1019.9
20260905210129 24 253 0.0 0.0 0.00 0.00 0.00 80 1019.9
20260905204516 24 253 0.0 0.0 0.00 0.00 0.00 80 1019.9
20260905203123 24 253 0.0 1.6 0.00 0.00 0.00 79 1019.9
20260905201559 24 253 0.0 1.6 0.00 0.00 0.00 79 1019.9
20260905200122 24 253 0.0 4.8 0.00 0.00 0.00 79 1020.0
20260905194507 25 253 3.2 4.8 0.00 0.00 0.00 76 1019.9
20260905193121 25 253 0.0 4.8 0.00 0.00 0.00 77 1019.8
20260905191503 25 253 0.0 4.8 0.00 0.00 0.00 76 1019.7
20260905190114 26 253 0.0 6.4 0.00 0.00 0.00 74 1019.6
20260905184559 26 253 6.4 12.9 0.00 0.00 0.00 74 1019.5
20260905183110 26 253 4.8 12.9 0.00 0.00 0.00 74 1019.4
20260905181503 26 239 3.2 9.7 0.00 0.00 0.00 75 1019.3
20260905180109 26 225 4.8 16.1 0.00 0.00 0.00 76 1019.2
20260905174641 26 245 4.8 12.9 0.00 0.00 0.00 77 1019.3
20260905173108 26 243 3.2 16.1 0.00 0.00 0.00 76 1019.1
20260905171634 27 223 4.8 20.9 0.00 0.00 0.00 74 1018.9
20260905170101 27 233 9.7 17.7 0.00 0.00 0.00 72 1018.9
20260905164623 28 232 9.7 19.3 0.00 0.00 0.00 66 1018.9
20260905163053 28 254 6.4 14.5 0.00 0.00 0.00 64 1018.8
20260905161618 28 235 9.7 19.3 0.00 0.00 0.00 61 1018.7
20260905160010 29 205 3.2 12.9 0.00 0.00 0.00 60 1018.8
20260905154611 29 257 11.3 17.7 0.00 0.00 0.00 59 1018.8
20260905153134 30 228 8.0 17.7 0.00 0.00 0.00 52 1018.9
20260905151603 30 243 8.0 17.7 0.00 0.00 0.00 49 1018.9
20260905150126 31 246 8.0 24.1 0.00 0.00 0.00 45 1018.9
20260905144514 31 201 9.7 16.1 0.00 0.00 0.00 38 1018.9
20260905143118 31 247 6.4 19.3 0.00 0.00 0.00 42 1018.9
20260905141504 31 253 6.4 22.5 0.00 0.00 0.00 50 1019.0
20260905140116 31 255 11.3 19.3 0.00 0.00 0.00 45 1019.0
20260905134510 31 247 6.4 14.5 0.00 0.00 0.00 44 1019.0
20260905133117 31 241 9.7 17.7 0.00 0.00 0.00 45 1019.1
20260905131503 31 244 9.7 19.3 0.00 0.00 0.00 44 1019.2
20260905130111 31 212 6.4 14.5 0.00 0.00 0.00 44 1019.4
20260905124638 31 191 8.0 17.7 0.00 0.00 0.00 45 1019.5
20260905123055 31 222 9.7 22.5 0.00 0.00 0.00 46 1019.5
20260905121622 31 234 11.3 19.3 0.00 0.00 0.00 51 1019.6
20260905120113 30 217 6.4 19.3 0.00 0.00 0.00 53 1019.7
20260905114618 31 191 8.0 16.1 0.00 0.00 0.00 51 1019.6
20260905113048 30 277 8.0 16.1 0.00 0.00 0.00 53 1019.6
20260905111614 31 216 3.2 16.1 0.00 0.00 0.00 51 1019.6
20260905110129 30 194 8.0 16.1 0.00 0.00 0.00 62 1019.7
20260905104519 30 216 4.8 16.1 0.00 0.00 0.00 65 1019.6
20260905103124 30 181 6.4 12.9 0.00 0.00 0.00 64 1019.8
20260905101508 30 250 6.4 16.1 0.00 0.00 0.00 63 1019.9
20260905100112 30 199 8.0 12.9 0.00 0.00 0.00 62 1020.0
20260905094633 30 218 8.0 12.9 0.00 0.00 0.00 59 1020.1
20260905093057 30 246 4.8 14.5 0.00 0.00 0.00 56 1020.1
20260905091624 30 226 3.2 9.7 0.00 0.00 0.00 56 1020.1
20260905090121 29 249 6.4 11.3 0.00 0.00 0.00 55 1020.0
20260905084644 30 253 3.2 12.9 0.00 0.00 0.00 54 1019.9